Regional Weather Roundup
Issued by NWS

Home | Current Version | Previous Version | Graphics & Text | Print | Product List | Glossary On
Versions: 1 2 3 4 5 6 7 8 9 10 11 12 13 14 15 16 17 18 19 20 21 22 23 24 25 26 27 28 29 30 31 32 33 34 35 36 37 38 39 40 41 42 43 44 45 46 47 48 49 50
000
ASUS45 KSLC 190410
RWRUT

UTAH REGIONAL WEATHER ROUNDUP
NATIONAL WEATHER SERVICE SALT LAKE CITY UT
1000 PM MDT SAT APR 18 2015

UTZ001>011-023>025-190500-

NORTHERN UTAH

CITY           SKY/WX    TMP DP  RH WIND       PRES   REMARKS
BRIGHAM CITY   CLEAR     55  29  37 NW9       30.00R
HILL AFB       CLEAR     58  33  39 VRB1      30.01R
LOGAN          CLEAR     52  33  48 CALM      30.00R
OGDEN          CLEAR     54  35  48 CALM      29.99R
PROVO AIRPORT  CLEAR     52  36  54 CALM      30.00R
SALT LAKE CITY CLEAR     57  36  45 CALM      29.99R
VERNAL         CLOUDY    47  36  65 E10       30.09R
WENDOVER       CLEAR     61  10  13 N14       30.03R
HEBER CITY     CLEAR     41  30  65 E7        30.03R THUNDER
WEST JORDAN    CLEAR     54  34  47 W5        30.01R

$$

UTZ012>022-026-027-190500-

SOUTHERN/CENTRAL UTAH

CITY           SKY/WX    TMP DP  RH WIND       PRES   REMARKS
BLANDING       MOCLDY    44  40  88 N3        30.10S
BRYCE CANYON   CLEAR     43  18  36 N13       30.11R
CEDAR CITY     MOCLDY    50  20  30 SE5       30.03R
DELTA          CLEAR     53  20  27 NE6       30.01R
HANKSVILLE     CLEAR     54  36  50 NE13G18   30.01R
MILFORD        PTCLDY    49  19  30 N9        30.01R
MOAB/CYNLANDS  CLOUDY    50  45  83 E13       30.02R
PRICE          PTCLDY    51  26  37 N9        30.04R
ST GEORGE      CLEAR     72  18  13 NW3       29.92R
KANAB          CLEAR     50  21  32 NW8       30.04R

$$

REGIONAL REPORTS     COLORADO/ARIZONA

CITY           SKY/WX    TMP DP  RH WIND       PRES   REMARKS
CRAIG, CO      CLOUDY    35  32  88 SW10      30.06R WCI  27
GRAND JUNCTION MOCLDY    40  38  93 SE7       30.07R
RIFLE          CLOUDY    34  31  88 NE6       30.06R WCI  29
MONTROSE       MOCLDY    38  37  97 NW7       30.08R WCI  33
CORTEZ         PTCLDY    47  34  60 NW6       30.03R
PAGE, AZ       CLEAR     67  24  19 CALM      29.95R
GRAND CANYON   CLEAR     36  13  38 CALM      30.08R
KINGMAN        CLEAR     54  14  20 S7        29.95R
FLAGSTAFF      CLEAR     42  13  30 CALM      30.09R

$$

REGIONAL REPORTS    NEVADA/IDAHO/WYOMING

CITY           SKY/WX    TMP DP  RH WIND       PRES   REMARKS
LAS VEGAS, NV  CLEAR     79  13   8 S12       29.80R
ELY            MOCLDY    53  14  21 NE10      30.10R
ELKO           CLEAR     55  17  22 VRB5      30.10R
POCATELLO, ID  CLEAR     51  27  39 S12       30.04R
BURLEY         CLEAR     51  28  41 SW12      30.03R
EVANSTON, WY   PTCLDY    44  21  40 N12       30.08R
ROCK SPRINGS   CLOUDY    39  34  82 SE15      30.11R WCI  31
KEMMERER       CLOUDY    43  32  65 SE5       30.12R

$$



USA.gov is the U.S. government's official web portal to all federal, state and local government web resources and services.